• In Hungary
  • List of Countries
  • For 7 days
  • Water Temperature
  • Satellite Maps
  • Weather Map
  • News
  • Weather Widgets
  • user-avatar
    Login

    Hourly Weather Ostersund

    Today, 21 May, Monday

    Time Temperature Precipitation Wind Pressure Humidity
    00:00 +14°C° 0 mm 2 mps 737 mmHg 46%
    01:00 +12°C° 0 mm 2 mps 737 mmHg 50%
    02:00 +12°C° 0 mm 2 mps 737 mmHg 53%
    03:00 +12°C° 0 mm 1 mps 737 mmHg 56%
    04:00 +12°C° 0 mm 1 mps 737 mmHg 58%
    05:00 +14°C° 0 mm 1 mps 737 mmHg 52%
    06:00 +16°C° 0 mm 1 mps 738 mmHg 46%
    07:00 +19°C° 0 mm 1 mps 738 mmHg 40%
    08:00 +21°C° 0 mm 1 mps 738 mmHg 35%
    09:00 +23°C° 0 mm 1 mps 738 mmHg 31%
    10:00 +24°C° 0 mm 1 mps 738 mmHg 26%
    11:00 +25°C° 0 mm 1 mps 738 mmHg 24%
    12:00 +26°C° 0 mm 2 mps 738 mmHg 23%
    13:00 +27°C° 0 mm 2 mps 738 mmHg 21%
    14:00 +27°C° 0 mm 2 mps 738 mmHg 20%
    15:00 +27°C° 0 mm 2 mps 738 mmHg 20%
    16:00 +27°C° 0 mm 2 mps 737 mmHg 20%
    17:00 +26°C° 0 mm 2 mps 737 mmHg 24%
    18:00 +25°C° 0 mm 1 mps 737 mmHg 28%
    19:00 +24°C° 0 mm 1 mps 737 mmHg 32%
    20:00 +22°C° 0 mm 1 mps 737 mmHg 38%
    21:00 +20°C° 0 mm 1 mps 737 mmHg 44%
    22:00 +16°C° 0 mm 2 mps 737 mmHg 51%
    23:00 +15°C° 0 mm 2 mps 737 mmHg 57%

    Tomorrow, 22 May, Tuesday

    Time Temperature Precipitation Wind Pressure Humidity
    00:00 +14°C° 0 mm 2 mps 737 mmHg 63%
    01:00 +13°C° 0 mm 1 mps 737 mmHg 70%
    02:00 +13°C° 0 mm 1 mps 737 mmHg 72%
    03:00 +13°C° 0 mm 1 mps 737 mmHg 74%
    04:00 +12°C° 0 mm 1 mps 737 mmHg 77%
    05:00 +14°C° 0 mm 1 mps 737 mmHg 69%
    06:00 +15°C° 0 mm 1 mps 737 mmHg 62%
    07:00 +18°C° 0 mm 1 mps 737 mmHg 55%
    08:00 +19°C° 0 mm 1 mps 737 mmHg 50%
    09:00 +20°C° 0 mm 1 mps 737 mmHg 46%
    10:00 +22°C° 0 mm 1 mps 736 mmHg 41%
    11:00 +22°C° 0 mm 1 mps 736 mmHg 39%
    12:00 +23°C° 0 mm 1 mps 736 mmHg 37%
    13:00 +24°C° 0 mm 1 mps 736 mmHg 35%
    14:00 +24°C° 0 mm 2 mps 736 mmHg 35%
    15:00 +23°C° 0 mm 2 mps 736 mmHg 35%
    16:00 +22°C° 0 mm 3 mps 735 mmHg 35%
    17:00 +21°C° 0 mm 3 mps 735 mmHg 38%
    18:00 +20°C° 0 mm 3 mps 735 mmHg 41%
    19:00 +19°C° 0 mm 3 mps 735 mmHg 43%
    20:00 +18°C° 0 mm 3 mps 736 mmHg 48%
    21:00 +16°C° 0 mm 3 mps 736 mmHg 52%
    22:00 +13°C° 0 mm 3 mps 736 mmHg 57%
    23:00 +12°C° 0 mm 3 mps 736 mmHg 61%

    Day after tomorrow, 23 May, Wednesday

    Time Temperature Precipitation Wind Pressure Humidity
    00:00 +11°C° 0 mm 3 mps 737 mmHg 64%
    01:00 +12°C° 0 mm 2 mps 737 mmHg 68%
    02:00 +10°C° 0 mm 2 mps 737 mmHg 70%
    03:00 +10°C° 0 mm 3 mps 738 mmHg 73%
    04:00 +10°C° 0 mm 3 mps 738 mmHg 75%
    05:00 +11°C° 0 mm 3 mps 739 mmHg 70%
    06:00 +12°C° 0 mm 3 mps 739 mmHg 65%
    07:00 +13°C° 0 mm 3 mps 739 mmHg 59%
    08:00 +16°C° 0 mm 2 mps 740 mmHg 54%
    09:00 +17°C° 0 mm 2 mps 740 mmHg 48%
    10:00 +18°C° 0 mm 2 mps 740 mmHg 43%
    11:00 +19°C° 0 mm 2 mps 741 mmHg 40%
    12:00 +20°C° 0 mm 2 mps 741 mmHg 38%
    13:00 +20°C° 0 mm 3 mps 741 mmHg 36%
    14:00 +20°C° 0 mm 3 mps 741 mmHg 35%
    15:00 +20°C° 0 mm 3 mps 741 mmHg 34%
    16:00 +20°C° 0 mm 3 mps 741 mmHg 33%
    17:00 +20°C° 0 mm 3 mps 742 mmHg 34%
    18:00 +19°C° 0 mm 2 mps 742 mmHg 35%
    19:00 +18°C° 0 mm 2 mps 742 mmHg 36%
    20:00 +16°C° 0 mm 2 mps 743 mmHg 39%
    21:00 +14°C° 0 mm 1 mps 743 mmHg 43%
    22:00 +12°C° 0 mm 1 mps 743 mmHg 46%
    23:00 +11°C° 0 mm 1 mps 744 mmHg 46%

    24 May, Thursday

    Time Temperature Precipitation Wind Pressure Humidity
    00:00 +11°C° 0 mm 1 mps 744 mmHg 46%
    01:00 +10°C° 0 mm 1 mps 744 mmHg 45%
    02:00 +9°C° 0 mm 0 mps 744 mmHg 45%
    03:00 +9°C° 0 mm 0 mps 744 mmHg 44%
    04:00 +9°C° 0 mm 0 mps 745 mmHg 44%
    05:00 +12°C° 0 mm 1 mps 745 mmHg 40%
    06:00 +14°C° 0 mm 1 mps 745 mmHg 36%
    07:00 +16°C° 0 mm 2 mps 745 mmHg 33%
    08:00 +18°C° 0 mm 2 mps 745 mmHg 34%
    09:00 +20°C° 0 mm 2 mps 745 mmHg 34%
    10:00 +21°C° 0 mm 3 mps 745 mmHg 35%
    11:00 +24°C° 0 mm 3 mps 744 mmHg 33%
    12:00 +25°C° 0 mm 3 mps 744 mmHg 31%
    13:00 +27°C° 0 mm 3 mps 744 mmHg 29%
    14:00 +27°C° 0 mm 3 mps 744 mmHg 28%
    15:00 +27°C° 0 mm 3 mps 743 mmHg 27%
    16:00 +28°C° 0 mm 3 mps 743 mmHg 26%
    17:00 +27°C° 0 mm 2 mps 743 mmHg 29%
    18:00 +26°C° 0 mm 2 mps 743 mmHg 32%
    19:00 +25°C° 0 mm 2 mps 743 mmHg 35%
    20:00 +23°C° 0 mm 2 mps 743 mmHg 40%
    21:00 +19°C° 0 mm 2 mps 743 mmHg 45%
    22:00 +17°C° 0 mm 2 mps 744 mmHg 50%
    23:00 +16°C° 0 mm 2 mps 744 mmHg 53%

    25 May, Friday

    Time Temperature Precipitation Wind Pressure Humidity
    00:00 +15°C° 0 mm 2 mps 744 mmHg 57%
    01:00 +14°C° 0 mm 2 mps 744 mmHg 60%
    02:00 +14°C° 0 mm 2 mps 744 mmHg 62%
    03:00 +13°C° 0 mm 1 mps 744 mmHg 63%
    04:00 +13°C° 0 mm 1 mps 744 mmHg 65%
    05:00 +15°C° 0 mm 1 mps 744 mmHg 56%
    06:00 +18°C° 0 mm 1 mps 744 mmHg 48%
    07:00 +20°C° 0 mm 1 mps 744 mmHg 40%
    08:00 +22°C° 0 mm 1 mps 744 mmHg 36%
    09:00 +24°C° 0 mm 1 mps 744 mmHg 32%
    10:00 +26°C° 0 mm 1 mps 744 mmHg 28%
    11:00 +27°C° 0 mm 1 mps 744 mmHg 27%
    12:00 +27°C° 0 mm 1 mps 744 mmHg 26%
    13:00 +28°C° 0 mm 2 mps 743 mmHg 25%
    14:00 +27°C° 0 mm 2 mps 743 mmHg 28%
    15:00 +26°C° 0 mm 2 mps 743 mmHg 30%
    16:00 +25°C° 0 mm 2 mps 743 mmHg 32%
    17:00 +24°C° 0 mm 3 mps 743 mmHg 34%
    18:00 +22°C° 0 mm 3 mps 743 mmHg 36%
    19:00 +21°C° 0 mm 4 mps 743 mmHg 38%
    20:00 +19°C° 0 mm 4 mps 744 mmHg 43%
    21:00 +18°C° 0 mm 4 mps 744 mmHg 47%
    22:00 +15°C° 0 mm 4 mps 745 mmHg 51%
    23:00 +14°C° 0 mm 4 mps 745 mmHg 57%

    26 May, Saturday

    Time Temperature Precipitation Wind Pressure Humidity
    00:00 +13°C° 0 mm 4 mps 746 mmHg 62%
    01:00 +12°C° 0 mm 3 mps 746 mmHg 68%
    02:00 +11°C° 0 mm 3 mps 747 mmHg 68%
    03:00 +10°C° 0 mm 3 mps 747 mmHg 68%
    04:00 +9°C° 0 mm 3 mps 747 mmHg 68%
    05:00 +10°C° 0 mm 3 mps 747 mmHg 60%
    06:00 +11°C° 0 mm 3 mps 748 mmHg 52%
    07:00 +12°C° 0 mm 3 mps 748 mmHg 45%
    08:00 +15°C° 0 mm 2 mps 748 mmHg 38%
    09:00 +16°C° 0 mm 2 mps 748 mmHg 32%
    10:00 +18°C° 0 mm 2 mps 748 mmHg 25%
    11:00 +19°C° 0 mm 2 mps 748 mmHg 23%
    12:00 +20°C° 0 mm 2 mps 747 mmHg 21%
    13:00 +21°C° 0 mm 2 mps 747 mmHg 20%
    14:00 +21°C° 0 mm 3 mps 747 mmHg 20%
    15:00 +21°C° 0 mm 3 mps 747 mmHg 20%
    16:00 +21°C° 0 mm 3 mps 747 mmHg 20%
    17:00 +20°C° 0 mm 3 mps 746 mmHg 23%
    18:00 +19°C° 0 mm 3 mps 746 mmHg 25%
    19:00 +18°C° 0 mm 3 mps 746 mmHg 27%
    20:00 +16°C° 0 mm 2 mps 746 mmHg 32%
    21:00 +14°C° 0 mm 2 mps 747 mmHg 37%
    22:00 +12°C° 0 mm 2 mps 747 mmHg 42%
    23:00 +10°C° 0 mm 2 mps 747 mmHg 44%
    Show more